Middletown, PA

12:53 AM EST on February 25, 2017 (GMT -0500)
Harrisburg International

Weather History for KMDT - July, 2013

Change the Weather History Date:

Saturday, July 6, 2013

  Actual Average Record
Temperature  
Mean Temperature 82 °F 76 °F  
Max Temperature 93 °F 86 °F 102 °F (1999)
Min Temperature 71 °F 66 °F 51 °F (1979)
Degree Days  
Heating Degree Days 0 0  
Month to date heating degree days 0 0  
Since 1 June heating degree days 2 18  
Since 1 July heating degree days 0 0  
Cooling Degree Days 17 11  
Month to date cooling degree days 89 64  
Year to date cooling degree days 396 342  
Since 1 June cooling degree days 313 277  
Growing Degree Days 32 (Base 50)    
Moisture  
Dew Point 70 °F    
Average Humidity 71    
Maximum Humidity 93    
Minimum Humidity 49    
Precipitation  
Precipitation 0.00 in 0.14 in 1.37 in (1896)
Month to date precipitation 0.24 0.85  
Year to date precipitation 16.17 19.98  
Sea Level Pressure  
Sea Level Pressure 30.11 in    
Wind  
Wind Speed 4 mph (WSW)    
Max Wind Speed 15 mph    
Max Gust Speed 20 mph    
Visibility 10 miles    
Events      
T = Trace of Precipitation, MM = Missing Value Source: NWS Daily Summary

Daily Weather History Graph

Daily Weather History Graph

Search for Another Location

Airport or City:

Trip Planner

Search our weather history database for the weather conditions in past years. The results will help you decide how hot, cold, wet, or windy it might be!

Date:

Astronomy

Jul. 06, 2013 Rise Set
Actual Time 5:44 AM EDT 8:39 PM EDT
Civil Twilight 5:11 AM EDT 9:11 PM EDT
Nautical Twilight 4:30 AM EDT 9:52 PM EDT
Astronomical Twilight 3:42 AM EDT 10:40 PM EDT
Moon 4:28 AM EDT (7/6) 7:19 PM EDT (7/6)
Length of Visible Light 16h 00m
Length of Day
14h 55m
Waning Crescent, 2% of the Moon is Illuminated
Jul 6
Waning Crescent
Jul 8
New
Jul 15
First Quarter
Jul 22
Full
Jul 29
Last Quarter

Hourly Weather History & Observations

Time (EDT) Temp. Heat Index Dew Point Humidity Pressure Visibility Wind Dir Wind Speed Gust Speed Precip Events Conditions
12:56 AM 79.0 °F - 70.0 °F 74% 30.13 in 10.0 mi SW 10.4 mph 17.3 mph N/A   Partly Cloudy
1:56 AM 78.1 °F - 70.0 °F 76% 30.14 in 10.0 mi SW 10.4 mph - N/A   Partly Cloudy
2:56 AM 77.0 °F - 70.0 °F 79% 30.14 in 10.0 mi Calm Calm - N/A   Partly Cloudy
3:56 AM 75.0 °F - 71.1 °F 87% 30.14 in 10.0 mi Calm Calm - N/A   Partly Cloudy
4:56 AM 73.9 °F - 70.0 °F 87% 30.14 in 10.0 mi Calm Calm - N/A   Partly Cloudy
5:56 AM 72.0 °F - 70.0 °F 93% 30.15 in 7.0 mi Calm Calm - N/A   Scattered Clouds
6:56 AM 75.0 °F - 71.1 °F 87% 30.16 in 10.0 mi Calm Calm - N/A   Partly Cloudy
7:56 AM 78.1 °F - 71.1 °F 79% 30.17 in 10.0 mi Calm Calm - N/A   Scattered Clouds
8:56 AM 81.0 °F 84.9 °F 71.1 °F 72% 30.17 in 10.0 mi Calm Calm - N/A   Scattered Clouds
9:56 AM 82.9 °F 88.0 °F 72.0 °F 69% 30.16 in 9.0 mi Calm Calm - N/A   Scattered Clouds
10:56 AM 86.0 °F 91.5 °F 71.1 °F 61% 30.16 in 10.0 mi WNW 5.8 mph - N/A   Scattered Clouds
11:56 AM 89.1 °F 93.7 °F 69.1 °F 52% 30.15 in 10.0 mi WNW 5.8 mph - N/A   Scattered Clouds
12:56 PM 90.0 °F 93.6 °F 68.0 °F 48% 30.13 in 10.0 mi Calm Calm - N/A   Scattered Clouds
1:56 PM 89.1 °F 93.7 °F 69.1 °F 52% 30.11 in 10.0 mi WSW 3.5 mph - N/A   Scattered Clouds
2:56 PM 90.0 °F 95.4 °F 70.0 °F 52% 30.09 in 10.0 mi WNW 4.6 mph - N/A   Scattered Clouds
3:56 PM 91.0 °F 96.6 °F 70.0 °F 50% 30.08 in 10.0 mi Variable 3.5 mph - N/A   Scattered Clouds
4:56 PM 91.9 °F 96.9 °F 69.1 °F 47% 30.06 in 10.0 mi WSW 4.6 mph - N/A   Scattered Clouds
5:56 PM 90.0 °F 94.5 °F 69.1 °F 50% 30.05 in 10.0 mi SSW 6.9 mph - N/A   Partly Cloudy
6:56 PM 90.0 °F 93.6 °F 68.0 °F 48% 30.04 in 10.0 mi SSW 8.1 mph - N/A   Partly Cloudy
7:56 PM 87.1 °F 92.0 °F 70.0 °F 57% 30.04 in 10.0 mi Variable 3.5 mph - N/A   Partly Cloudy
8:56 PM 86.0 °F 90.1 °F 69.1 °F 57% 30.05 in 10.0 mi SSW 4.6 mph - N/A   Partly Cloudy
9:56 PM 84.0 °F 87.8 °F 69.1 °F 61% 30.06 in 10.0 mi SW 6.9 mph 16.1 mph N/A   Partly Cloudy
10:56 PM 82.9 °F 86.5 °F 69.1 °F 63% 30.08 in 10.0 mi Variable 3.5 mph - N/A   Partly Cloudy
11:56 PM 81.0 °F 84.1 °F 69.1 °F 67% 30.08 in 10.0 mi SW 9.2 mph 19.6 mph N/A   Partly Cloudy